Pauline, KS (66619)

8:37 PM CST on February 07, 2016 (GMT -0600)
Quail Run | | Change Station
CLOSE
Current Station
Personal Weather Station
Location: Topeka, KS
Elevation: 1007 ft
Nearby Weather Stations
Active Advisory: Wind Advisory

Elev 1007 ft 38.97 °N, 95.72 °W | Updated 28 seconds ago

Overcast
Overcast
40.5 °F
Feels Like 37 °F
N
4.9
Wind Variable Wind from NNW
Gusts 7.4 mph

Today
High -- | Low -- °F
--% Chance of Precip.
Yesterday
High -- | Low -- °F
Precip. -- in
Pressure 30.09 in
Visibility 10.0 miles
Clouds Overcast 9000 ft
Windchill 37 °F
Dew Point 28 °F
Humidity 60%
Rainfall 0.00 in
Snow Depth Not available.
7:23 AM 5:50 PM
Waning Crescent, 0% visible
METAR KFOE 080153Z 33014KT 10SM OVC090 05/M05 A3007 RMK AO2 PK WND 30034/0101 SLP188 T00501050
Pressure 30.09 in
Visibility 10.0 miles
Clouds Overcast 9000 ft
Windchill 37 °F
Dew Point 28 °F
Humidity 60%
Rainfall 0.00 in
Snow Depth Not available.
7:23 AM 5:50 PM
Waning Crescent, 0% visible
METAR KFOE 080153Z 33014KT 10SM OVC090 05/M05 A3007 RMK AO2 PK WND 30034/0101 SLP188 T00501050

10-Day Weather Forecast

Almanac

Astronomy

Feb. 07, 2016 Rise Set
Actual Time
Civil Twilight
Nautical Twilight
Astronomical Twilight
Moon
Length of Visible Light
Length of Day
Tomorrow will be .
, % of the Moon is Illuminated

Today's Extremes

State Highs State Lows

Community

WunderPhotos

Upload Photos

1,891,373 photos uploaded!

WunderBlog® & News

Nearby

Air Quality

  Air Quality AQ Index Pollutant
Not available.

Snow Depth

Station Depth Elevation

Earthquake Activity

City Distance Mag. Time & Date
Minimum magnitude displayed is 2.5.

Coastal Water Temperatures

Place Temperature

Stations

Nearby Weather Stations

Station Location Temp. Windchill Dew Point Humidity Wind Precip. Elev Updated Type
                   

Watches & Warnings

Wind Advisory
Issued: 6:05 PM CST Feb. 7, 2016 – National Weather Service

... Wind Advisory remains in effect from 8 am to 6 PM CST Monday...

* timing... wind speeds are expected to increase shortly after
sunrise and continue through the late afternoon.

* Winds... northwest winds will be sustained from 25 to 35 mph
with gusts around 45 mph.

* Impacts... loose and lightweight objects may be blown around by
the wind. Motorists should keep both hands on the steering
wheel. Light snow or flurries are also possible... and this
wind would combine with any falling snow to create greatly
reduced and quickly changing visibilities.

Precautionary/preparedness actions...

A Wind Advisory means that sustained winds of 30 mph or gusts to
45 mph are expected. Winds this strong can make driving
difficult... especially for high profile vehicles. Use extra
caution.